Woolwich, ME

9:44 AM EST on January 21, 2017 (GMT -0500)
Wiscasset

Weather History for KIWI - December, 2012

Change the Weather History Date:

Thursday, December 27, 2012

  Actual Average Record
Temperature  
Mean Temperature 29 °F -  
Max Temperature 34 °F 32 °F 54 °F (2016)
Min Temperature 24 °F 15 °F 3 °F (2013)
Degree Days  
Heating Degree Days 36    
Moisture  
Dew Point 26 °F    
Average Humidity 86    
Maximum Humidity 93    
Minimum Humidity 66    
Precipitation  
Precipitation 1.20 in - - ()
Sea Level Pressure  
Sea Level Pressure 29.65 in    
Wind  
Wind Speed 7 mph (NE)    
Max Wind Speed 14 mph    
Max Gust Speed 25 mph    
Visibility 2 miles    
Events Fog , Snow    
Averages and records for this station are not official NWS values.
T = Trace of Precipitation, MM = Missing Value Source: NWS Daily Summary

Daily Weather History Graph

Daily Weather History Graph

Search for Another Location

Airport or City:

Trip Planner

Search our weather history database for the weather conditions in past years. The results will help you decide how hot, cold, wet, or windy it might be!

Date:

Astronomy

Dec. 27, 2012 Rise Set
Actual Time 7:12 AM EST 4:07 PM EST
Civil Twilight 6:39 AM EST 4:40 PM EST
Nautical Twilight 6:03 AM EST 5:17 PM EST
Astronomical Twilight 5:28 AM EST 5:52 PM EST
Moon 3:49 PM EST (12/27) 6:20 AM EST (12/27)
Length of Visible Light 10h 01m
Length of Day
8h 55m
Full, 100% of the Moon is Illuminated
Dec 27
Full
Dec 28
Full
Jan 4
Last Quarter
Jan 11
New
Jan 18
First Quarter

Hourly Weather History & Observations

Time (EST) Temp. Windchill Dew Point Humidity Pressure Visibility Wind Dir Wind Speed Gust Speed Precip Events Conditions
12:53 AM 26.1 °F 21.9 °F 16.0 °F 66% 30.09 in 10.0 mi Variable 3.5 mph - N/A   Overcast
1:53 AM 26.1 °F 19.4 °F 17.1 °F 69% 30.07 in 9.0 mi Variable 5.8 mph - 0.00 in Snow Light Snow
2:22 AM 26.6 °F 20.0 °F 17.6 °F 69% 30.05 in 2.5 mi Variable 5.8 mph - 0.00 in Snow Light Snow
2:36 AM 24.8 °F 19.1 °F 19.4 °F 80% 30.04 in 1.5 mi Variable 4.6 mph - 0.00 in Snow Light Snow
2:45 AM 24.8 °F 19.1 °F 19.4 °F 80% 30.03 in 1.2 mi Variable 4.6 mph - 0.00 in Snow Light Snow
2:53 AM 25.0 °F 16.3 °F 21.0 °F 85% 30.03 in 1.2 mi NE 8.1 mph - 0.00 in Snow Light Snow
3:04 AM 24.8 °F 19.1 °F 21.2 °F 86% 30.02 in 1.0 mi Variable 4.6 mph - 0.01 in Snow Light Snow
3:22 AM 24.8 °F 16.9 °F 21.2 °F 86% 29.99 in 1.2 mi NE 6.9 mph - 0.01 in Snow Light Snow
3:33 AM 24.8 °F 17.9 °F 21.2 °F 86% 29.98 in 1.5 mi Variable 5.8 mph - 0.01 in Snow Light Snow
3:43 AM 24.8 °F 15.3 °F 21.2 °F 86% 29.97 in 1.2 mi NE 9.2 mph - 0.02 in Snow Light Snow
3:53 AM 25.0 °F 17.1 °F 21.9 °F 88% 29.97 in 1.0 mi NE 6.9 mph - 0.02 in Snow Light Snow
4:00 AM 24.8 °F 16.1 °F 21.2 °F 86% 29.96 in 0.8 mi NE 8.1 mph - 0.01 in Snow Light Snow
4:32 AM 26.6 °F 19.1 °F 23.0 °F 86% 29.93 in 0.5 mi Variable 6.9 mph - 0.04 in Fog , Snow Snow
4:53 AM 26.1 °F 20.5 °F 23.0 °F 88% 29.92 in 0.5 mi Variable 4.6 mph - 0.06 in Fog , Snow Snow
5:53 AM 27.0 °F 18.0 °F 24.1 °F 89% 29.86 in 0.2 mi NE 9.2 mph 16.1 mph 0.11 in Fog , Snow Snow
6:53 AM 27.0 °F 18.0 °F 24.1 °F 89% 29.77 in 0.5 mi NE 9.2 mph - 0.11 in Fog , Snow Snow
7:53 AM 28.9 °F 23.9 °F 27.0 °F 92% 29.74 in 0.2 mi Variable 4.6 mph - 0.11 in Fog , Snow Heavy Snow
8:53 AM 33.1 °F 24.9 °F 30.9 °F 92% 29.70 in 0.8 mi NE 10.4 mph 19.6 mph 0.13 in Snow Light Snow
9:00 AM 33.8 °F 27.0 °F 30.2 °F 87% 29.69 in 1.2 mi NE 8.1 mph 19.6 mph 0.01 in Snow Light Snow
9:12 AM 33.8 °F 25.8 °F 30.2 °F 87% 29.68 in 0.5 mi NE 10.4 mph 21.9 mph 0.05 in Fog , Snow Snow
9:46 AM 33.8 °F 24.3 °F 30.2 °F 87% 29.65 in 0.8 mi NE 13.8 mph 23.0 mph 0.12 in Snow Light Snow
9:53 AM 34.0 °F 26.0 °F 30.9 °F 89% 29.66 in 0.8 mi ENE 10.4 mph 23.0 mph 0.14 in Snow Light Snow
9:56 AM 33.8 °F 25.3 °F 30.2 °F 87% 29.65 in 1.0 mi NE 11.5 mph 21.9 mph 0.00 in Snow Light Snow
10:15 AM 33.8 °F 26.4 °F 30.2 °F 87% 29.64 in 1.0 mi NE 9.2 mph 18.4 mph 0.04 in Snow Light Snow
10:27 AM 33.8 °F 26.4 °F 30.2 °F 87% 29.63 in 0.8 mi NE 9.2 mph 17.3 mph 0.07 in Snow Light Snow
10:53 AM 34.0 °F 26.0 °F 30.9 °F 89% 29.62 in 0.8 mi NE 10.4 mph 23.0 mph 0.12 in Snow Light Snow
11:05 AM 33.8 °F 25.8 °F 30.2 °F 87% 29.61 in 1.0 mi NE 10.4 mph 25.3 mph 0.02 in Snow Light Snow
11:53 AM 34.0 °F 26.6 °F 30.9 °F 89% 29.57 in 0.8 mi NE 9.2 mph 16.1 mph 0.07 in Snow Light Snow
12:21 PM 33.8 °F 25.8 °F 30.2 °F 87% 29.54 in 1.0 mi NE 10.4 mph 20.7 mph 0.03 in Snow Light Snow
12:43 PM 33.8 °F 26.4 °F 30.2 °F 87% 29.53 in 1.2 mi NE 9.2 mph 20.7 mph 0.05 in Snow Light Snow
12:53 PM 34.0 °F 26.0 °F 30.9 °F 89% 29.52 in 1.2 mi NE 10.4 mph 18.4 mph 0.05 in Snow Light Snow
1:09 PM 33.8 °F 27.7 °F 30.2 °F 87% 29.52 in 0.5 mi Variable 6.9 mph - 0.03 in Fog , Snow Snow
1:53 PM 33.1 °F 25.5 °F 30.0 °F 89% 29.50 in 0.8 mi NE 9.2 mph 21.9 mph 0.09 in Snow Light Snow
2:41 PM 32.0 °F 24.2 °F 28.4 °F 87% 29.49 in 1.0 mi NE 9.2 mph 23.0 mph 0.02 in Snow Light Snow
2:53 PM 30.9 °F 22.8 °F 28.9 °F 92% 29.49 in 0.8 mi NNE 9.2 mph - 0.02 in Snow Light Snow
3:05 PM 30.2 °F 21.9 °F 28.4 °F 93% 29.49 in 1.2 mi NNE 9.2 mph 18.4 mph 0.00 in Snow Light Snow
3:27 PM 30.2 °F 23.4 °F 26.6 °F 86% 29.49 in 1.2 mi Variable 6.9 mph 19.6 mph 0.01 in Snow Light Snow
3:53 PM 30.0 °F 20.5 °F 27.0 °F 88% 29.49 in 1.0 mi NNE 11.5 mph 19.6 mph 0.01 in Snow Light Snow
4:11 PM 30.2 °F 21.9 °F 26.6 °F 86% 29.47 in 1.2 mi NE 9.2 mph 25.3 mph 0.00 in Snow Light Snow
4:19 PM 30.2 °F 22.6 °F 26.6 °F 86% 29.47 in 2.0 mi NE 8.1 mph 24.2 mph 0.00 in Snow Light Snow
4:27 PM 30.2 °F 21.9 °F 26.6 °F 86% 29.47 in 3.0 mi NE 9.2 mph 23.0 mph 0.00 in Snow Light Snow
4:34 PM 30.2 °F 21.3 °F 26.6 °F 86% 29.47 in 3.0 mi NE 10.4 mph 23.0 mph 0.00 in Snow Light Snow
4:53 PM 30.0 °F 20.0 °F 26.1 °F 85% 29.47 in 2.5 mi NNE 12.7 mph 24.2 mph 0.01 in Snow Light Snow
5:08 PM 30.2 °F 20.8 °F 26.6 °F 86% 29.46 in 3.0 mi NE 11.5 mph 21.9 mph 0.01 in Snow Light Snow
5:53 PM 30.0 °F 24.1 °F 26.1 °F 85% 29.46 in 4.0 mi Variable 5.8 mph 18.4 mph 0.01 in Snow Light Snow
6:42 PM 28.4 °F 19.7 °F 24.8 °F 86% 29.46 in 2.0 mi North 9.2 mph 20.7 mph 0.01 in Snow Light Snow
6:53 PM 28.0 °F 19.3 °F 25.0 °F 88% 29.47 in 1.8 mi NNE 9.2 mph 19.6 mph 0.02 in Snow Light Snow
7:21 PM 28.4 °F 21.2 °F 24.8 °F 86% 29.47 in 1.0 mi Variable 6.9 mph - 0.01 in Snow Light Snow
7:53 PM 28.0 °F 20.8 °F 24.1 °F 85% 29.47 in 1.2 mi Variable 6.9 mph 19.6 mph 0.03 in Snow Light Snow
8:11 PM 28.4 °F 23.3 °F 24.8 °F 86% 29.47 in 1.0 mi Variable 4.6 mph - 0.01 in Snow Light Snow
8:53 PM 28.0 °F 21.7 °F 24.1 °F 85% 29.48 in 1.2 mi Variable 5.8 mph - 0.02 in Snow Light Snow
9:15 PM 28.4 °F 20.4 °F 24.8 °F 86% 29.48 in 1.8 mi North 8.1 mph - 0.01 in Snow Light Snow
9:53 PM 28.0 °F 22.8 °F 25.0 °F 88% 29.50 in 1.0 mi Variable 4.6 mph - 0.03 in Snow Light Snow
10:16 PM 28.4 °F 20.4 °F 24.8 °F 86% 29.51 in 0.8 mi North 8.1 mph - 0.01 in Snow Light Snow
10:24 PM 28.4 °F 22.2 °F 24.8 °F 86% 29.51 in 1.0 mi Variable 5.8 mph - 0.01 in Snow Light Snow
10:53 PM 28.0 °F 22.8 °F 25.0 °F 88% 29.53 in 0.5 mi Variable 4.6 mph - 0.03 in Fog , Snow Snow
11:07 PM 28.4 °F 23.3 °F 24.8 °F 86% 29.53 in 1.2 mi Variable 4.6 mph - 0.01 in Snow Light Snow
11:14 PM 28.4 °F 22.2 °F 24.8 °F 86% 29.53 in 1.5 mi Variable 5.8 mph - 0.01 in Snow Light Snow
11:30 PM 28.4 °F 22.2 °F 24.8 °F 86% 29.53 in 2.5 mi Variable 5.8 mph - 0.01 in Snow Light Snow
11:50 PM 28.4 °F 19.7 °F 24.8 °F 86% 29.54 in 1.5 mi NNW 9.2 mph - 0.01 in Snow Light Snow
11:53 PM 28.0 °F 20.0 °F 24.1 °F 85% 29.54 in 1.5 mi NNW 8.1 mph - 0.01 in Snow Light Snow